This is the latest recevied weather packets stored in our database for station/object WB5RFA. If no packets are shown the sender has not sent any weather packets the latest 10 day(s).
| Time | Temp. | Humidity | Pressure | Rain* | Wind** | Luminosity | Snow |
|---|---|---|---|---|---|---|---|
| 1777921273 | 26.11° C | 46% | 1000.1 hPa | 0 mm | - | - | - |
| 1777920791 | 26.11° C | 47% | 1000.1 hPa | 0 mm | - | - | - |
| 1777920312 | 26.11° C | 46% | 1000.1 hPa | 0 mm | - | - | - |
| 1777919832 | 26.11° C | 48% | 1000.1 hPa | 0 mm | - | - | - |
| 1777919351 | 26.11° C | 46% | 1000.2 hPa | 0 mm | - | - | - |
| 1777918872 | 25.56° C | 47% | 1000.3 hPa | 0 mm | - | - | - |
| 1777918391 | 25.56° C | 49% | 1000.4 hPa | 0 mm | - | - | - |
| 1777917913 | 25.56° C | 47% | 1000.4 hPa | 0 mm | - | - | - |
| 1777917432 | 25.56° C | 50% | 1000.5 hPa | 0 mm | - | - | - |
| 1777916952 | 25° C | 47% | 1000.6 hPa | 0 mm | - | - | - |
| 1777916472 | 25° C | 48% | 1000.6 hPa | 0 mm | - | - | - |
| 1777915992 | 25° C | 47% | 1000.6 hPa | 0 mm | - | - | - |
| 1777915511 | 25° C | 49% | 1000.7 hPa | 0 mm | - | - | - |
| 1777915032 | 24.44° C | 49% | 1000.7 hPa | 0 mm | - | - | - |
| 1777914551 | 24.44° C | 48% | 1000.8 hPa | 0 mm | - | - | - |
| 1777914072 | 23.89° C | 48% | 1000.7 hPa | 0 mm | - | - | - |
| 1777913592 | 23.89° C | 49% | 1000.8 hPa | 0 mm | - | - | - |
| 1777913111 | 24.44° C | 48% | 1000.9 hPa | 0 mm | - | - | - |
| 1777912632 | 23.89° C | 49% | 1000.9 hPa | 0 mm | - | - | - |
| 1777912153 | 23.33° C | 50% | 1000.9 hPa | 0 mm | - | - | - |
| 1777911672 | 23.33° C | 51% | 1000.9 hPa | 0 mm | - | - | - |
| 1777911191 | 22.78° C | 49% | 1000.8 hPa | 0 mm | - | - | - |
| 1777910712 | 22.78° C | 51% | 1000.9 hPa | 0 mm | - | - | - |
| 1777910231 | 22.78° C | 51% | 1001 hPa | 0 mm | - | - | - |
| 1777909753 | 22.78° C | 50% | 1001 hPa | 0 mm | - | - | - |
* Rain latest hour (hover to see other rain measurements)
** Current wind speed in m/s (hover to see current wind gust speed)